owner,sensor,date,latitude,longitude,vertical_datum,sea_water_temperature,qcFlag 
ENP,ioos.station.NOAA.NDBC:PKYF1:1,2016-06-01T00:00:00Z,24.9180,-80.7470,1.0,31.3,2 
ENP,ioos.station.NOAA.NDBC:PKYF1:1,2016-06-01T01:00:00Z,24.9180,-80.7470,1.0,31.54,2 
ENP,ioos.station.NOAA.NDBC:PKYF1:1,2016-06-01T04:00:00Z,24.9180,-80.7470,1.0,30.5,2 
ENP,ioos.station.NOAA.NDBC:PKYF1:1,2016-06-01T07:00:00Z,24.9180,-80.7470,1.0,29.86,2 
ENP,ioos.station.NOAA.NDBC:PKYF1:1,2016-06-01T08:00:00Z,24.9180,-80.7470,1.0,29.56,2 
ENP,ioos.station.NOAA.NDBC:PKYF1:1,2016-06-01T09:00:00Z,24.9180,-80.7470,1.0,29.68,2 
ENP,ioos.station.NOAA.NDBC:PKYF1:1,2016-06-01T10:00:00Z,24.9180,-80.7470,1.0,29.72,2 
ENP,ioos.station.NOAA.NDBC:PKYF1:1,2016-06-01T11:00:00Z,24.9180,-80.7470,1.0,29.87,2 
ENP,ioos.station.NOAA.NDBC:PKYF1:1,2016-06-01T12:00:00Z,24.9180,-80.7470,1.0,29.96,2 
ENP,ioos.station.NOAA.NDBC:PKYF1:1,2016-06-01T13:00:00Z,24.9180,-80.7470,1.0,29.92,2 
ENP,ioos.station.NOAA.NDBC:PKYF1:1,2016-06-01T14:00:00Z,24.9180,-80.7470,1.0,30.05,2 
ENP,ioos.station.NOAA.NDBC:PKYF1:1,2016-06-01T15:00:00Z,24.9180,-80.7470,1.0,30.39,2 
ENP,ioos.station.NOAA.NDBC:PKYF1:1,2016-06-01T16:00:00Z,24.9180,-80.7470,1.0,30.65,2 
ENP,ioos.station.NOAA.NDBC:PKYF1:1,2016-06-01T17:00:00Z,24.9180,-80.7470,1.0,30.87,2 
ENP,ioos.station.NOAA.NDBC:PKYF1:1,2016-06-01T18:00:00Z,24.9180,-80.7470,1.0,31.08,2 
ENP,ioos.station.NOAA.NDBC:PKYF1:1,2016-06-01T19:00:00Z,24.9180,-80.7470,1.0,31.39,2 
ENP,ioos.station.NOAA.NDBC:PKYF1:1,2016-06-01T20:00:00Z,24.9180,-80.7470,1.0,31.78,2 
ENP,ioos.station.NOAA.NDBC:PKYF1:1,2016-06-01T21:00:00Z,24.9180,-80.7470,1.0,32.04,2 
ENP,ioos.station.NOAA.NDBC:PKYF1:1,2016-06-01T22:00:00Z,24.9180,-80.7470,1.0,32.2,2 
ENP,ioos.station.NOAA.NDBC:PKYF1:1,2016-06-01T23:00:00Z,24.9180,-80.7470,1.0,31.68,2 
ENP,ioos.station.NOAA.NDBC:PKYF1:1,2016-06-02T00:00:00Z,24.9180,-80.7470,1.0,31.28,2 
ENP,ioos.station.NOAA.NDBC:PKYF1:1,2016-06-02T01:00:00Z,24.9180,-80.7470,1.0,31.06,2 
ENP,ioos.station.NOAA.NDBC:PKYF1:1,2016-06-02T04:00:00Z,24.9180,-80.7470,1.0,30.49,2 
ENP,ioos.station.NOAA.NDBC:PKYF1:1,2016-06-02T07:00:00Z,24.9180,-80.7470,1.0,30.06,2 
ENP,ioos.station.NOAA.NDBC:PKYF1:1,2016-06-02T08:00:00Z,24.9180,-80.7470,1.0,29.69,2 
ENP,ioos.station.NOAA.NDBC:PKYF1:1,2016-06-02T09:00:00Z,24.9180,-80.7470,1.0,29.62,2 
ENP,ioos.station.NOAA.NDBC:PKYF1:1,2016-06-02T11:00:00Z,24.9180,-80.7470,1.0,29.65,2 
ENP,ioos.station.NOAA.NDBC:PKYF1:1,2016-06-02T12:00:00Z,24.9180,-80.7470,1.0,29.76,2 
ENP,ioos.station.NOAA.NDBC:PKYF1:1,2016-06-02T13:00:00Z,24.9180,-80.7470,1.0,30.03,2 
ENP,ioos.station.NOAA.NDBC:PKYF1:1,2016-06-02T14:00:00Z,24.9180,-80.7470,1.0,30.28,2 
ENP,ioos.station.NOAA.NDBC:PKYF1:1,2016-06-02T15:00:00Z,24.9180,-80.7470,1.0,30.22,2 
ENP,ioos.station.NOAA.NDBC:PKYF1:1,2016-06-02T16:00:00Z,24.9180,-80.7470,1.0,30.36,2 
ENP,ioos.station.NOAA.NDBC:PKYF1:1,2016-06-02T17:00:00Z,24.9180,-80.7470,1.0,30.56,2 
ENP,ioos.station.NOAA.NDBC:PKYF1:1,2016-06-02T18:00:00Z,24.9180,-80.7470,1.0,30.88,2 
ENP,ioos.station.NOAA.NDBC:PKYF1:1,2016-06-02T19:00:00Z,24.9180,-80.7470,1.0,31.17,2 
ENP,ioos.station.NOAA.NDBC:PKYF1:1,2016-06-02T20:00:00Z,24.9180,-80.7470,1.0,31.4,2 
ENP,ioos.station.NOAA.NDBC:PKYF1:1,2016-06-02T21:00:00Z,24.9180,-80.7470,1.0,31.77,2 
ENP,ioos.station.NOAA.NDBC:PKYF1:1,2016-06-02T22:00:00Z,24.9180,-80.7470,1.0,32.56,2 
ENP,ioos.station.NOAA.NDBC:PKYF1:1,2016-06-02T23:00:00Z,24.9180,-80.7470,1.0,32.28,2 
ENP,ioos.station.NOAA.NDBC:PKYF1:1,2016-06-03T00:00:00Z,24.9180,-80.7470,1.0,31.61,2 
ENP,ioos.station.NOAA.NDBC:PKYF1:1,2016-06-03T01:00:00Z,24.9180,-80.7470,1.0,31.45,2 
ENP,ioos.station.NOAA.NDBC:PKYF1:1,2016-06-03T04:00:00Z,24.9180,-80.7470,1.0,30.8,2 
ENP,ioos.station.NOAA.NDBC:PKYF1:1,2016-06-03T05:00:00Z,24.9180,-80.7470,1.0,30.87,2 
ENP,ioos.station.NOAA.NDBC:PKYF1:1,2016-06-03T07:00:00Z,24.9180,-80.7470,1.0,30.58,2 
ENP,ioos.station.NOAA.NDBC:PKYF1:1,2016-06-03T08:00:00Z,24.9180,-80.7470,1.0,30.45,2 
ENP,ioos.station.NOAA.NDBC:PKYF1:1,2016-06-03T09:00:00Z,24.9180,-80.7470,1.0,29.95,2 
ENP,ioos.station.NOAA.NDBC:PKYF1:1,2016-06-03T10:00:00Z,24.9180,-80.7470,1.0,30.05,2 
ENP,ioos.station.NOAA.NDBC:PKYF1:1,2016-06-03T11:00:00Z,24.9180,-80.7470,1.0,30.12,2 
ENP,ioos.station.NOAA.NDBC:PKYF1:1,2016-06-03T12:00:00Z,24.9180,-80.7470,1.0,30.15,2 
ENP,ioos.station.NOAA.NDBC:PKYF1:1,2016-06-03T13:00:00Z,24.9180,-80.7470,1.0,30.36,2 
ENP,ioos.station.NOAA.NDBC:PKYF1:1,2016-06-03T14:00:00Z,24.9180,-80.7470,1.0,30.78,2 
ENP,ioos.station.NOAA.NDBC:PKYF1:1,2016-06-03T15:00:00Z,24.9180,-80.7470,1.0,31.03,2 
ENP,ioos.station.NOAA.NDBC:PKYF1:1,2016-06-03T16:00:00Z,24.9180,-80.7470,1.0,31.13,2 
ENP,ioos.station.NOAA.NDBC:PKYF1:1,2016-06-03T17:00:00Z,24.9180,-80.7470,1.0,31.19,2 
ENP,ioos.station.NOAA.NDBC:PKYF1:1,2016-06-03T18:00:00Z,24.9180,-80.7470,1.0,31.39,2 
ENP,ioos.station.NOAA.NDBC:PKYF1:1,2016-06-03T19:00:00Z,24.9180,-80.7470,1.0,31.53,2 
ENP,ioos.station.NOAA.NDBC:PKYF1:1,2016-06-03T20:00:00Z,24.9180,-80.7470,1.0,31.66,2 
ENP,ioos.station.NOAA.NDBC:PKYF1:1,2016-06-03T21:00:00Z,24.9180,-80.7470,1.0,31.77,2 
ENP,ioos.station.NOAA.NDBC:PKYF1:1,2016-06-03T22:00:00Z,24.9180,-80.7470,1.0,31.78,2 
ENP,ioos.station.NOAA.NDBC:PKYF1:1,2016-06-03T23:00:00Z,24.9180,-80.7470,1.0,31.91,2 
ENP,ioos.station.NOAA.NDBC:PKYF1:1,2016-06-04T00:00:00Z,24.9180,-80.7470,1.0,31.43,2 
ENP,ioos.station.NOAA.NDBC:PKYF1:1,2016-06-04T01:00:00Z,24.9180,-80.7470,1.0,31.2,2 
ENP,ioos.station.NOAA.NDBC:PKYF1:1,2016-06-04T04:00:00Z,24.9180,-80.7470,1.0,30.68,2 
ENP,ioos.station.NOAA.NDBC:PKYF1:1,2016-06-04T07:00:00Z,24.9180,-80.7470,1.0,30.39,2 
ENP,ioos.station.NOAA.NDBC:PKYF1:1,2016-06-04T08:00:00Z,24.9180,-80.7470,1.0,30.37,2 
ENP,ioos.station.NOAA.NDBC:PKYF1:1,2016-06-04T09:00:00Z,24.9180,-80.7470,1.0,30.35,2 
ENP,ioos.station.NOAA.NDBC:PKYF1:1,2016-06-04T10:00:00Z,24.9180,-80.7470,1.0,29.94,2 
ENP,ioos.station.NOAA.NDBC:PKYF1:1,2016-06-04T11:00:00Z,24.9180,-80.7470,1.0,29.97,2 
ENP,ioos.station.NOAA.NDBC:PKYF1:1,2016-06-04T12:00:00Z,24.9180,-80.7470,1.0,29.87,2 
ENP,ioos.station.NOAA.NDBC:PKYF1:1,2016-06-04T13:00:00Z,24.9180,-80.7470,1.0,30.01,2 
ENP,ioos.station.NOAA.NDBC:PKYF1:1,2016-06-04T14:00:00Z,24.9180,-80.7470,1.0,30.31,2 
ENP,ioos.station.NOAA.NDBC:PKYF1:1,2016-06-04T15:00:00Z,24.9180,-80.7470,1.0,30.81,2 
ENP,ioos.station.NOAA.NDBC:PKYF1:1,2016-06-04T16:00:00Z,24.9180,-80.7470,1.0,31.03,2 
ENP,ioos.station.NOAA.NDBC:PKYF1:1,2016-06-04T17:00:00Z,24.9180,-80.7470,1.0,31.43,2 
ENP,ioos.station.NOAA.NDBC:PKYF1:1,2016-06-04T18:00:00Z,24.9180,-80.7470,1.0,31.33,2 
ENP,ioos.station.NOAA.NDBC:PKYF1:1,2016-06-04T19:00:00Z,24.9180,-80.7470,1.0,31.24,2 
ENP,ioos.station.NOAA.NDBC:PKYF1:1,2016-06-04T20:00:00Z,24.9180,-80.7470,1.0,31.31,2 
ENP,ioos.station.NOAA.NDBC:PKYF1:1,2016-06-04T21:00:00Z,24.9180,-80.7470,1.0,31.28,2 
ENP,ioos.station.NOAA.NDBC:PKYF1:1,2016-06-04T22:00:00Z,24.9180,-80.7470,1.0,31.23,2 
ENP,ioos.station.NOAA.NDBC:PKYF1:1,2016-06-04T23:00:00Z,24.9180,-80.7470,1.0,31.06,2 
ENP,ioos.station.NOAA.NDBC:PKYF1:1,2016-06-05T00:00:00Z,24.9180,-80.7470,1.0,30.73,2 
ENP,ioos.station.NOAA.NDBC:PKYF1:1,2016-06-05T01:00:00Z,24.9180,-80.7470,1.0,30.37,2 
ENP,ioos.station.NOAA.NDBC:PKYF1:1,2016-06-05T04:00:00Z,24.9180,-80.7470,1.0,30.19,2 
ENP,ioos.station.NOAA.NDBC:PKYF1:1,2016-06-05T07:00:00Z,24.9180,-80.7470,1.0,29.76,2 
ENP,ioos.station.NOAA.NDBC:PKYF1:1,2016-06-05T08:00:00Z,24.9180,-80.7470,1.0,29.9,2 
ENP,ioos.station.NOAA.NDBC:PKYF1:1,2016-06-05T09:00:00Z,24.9180,-80.7470,1.0,29.89,2 
ENP,ioos.station.NOAA.NDBC:PKYF1:1,2016-06-05T11:00:00Z,24.9180,-80.7470,1.0,29.55,2 
ENP,ioos.station.NOAA.NDBC:PKYF1:1,2016-06-05T12:00:00Z,24.9180,-80.7470,1.0,29.67,2 
ENP,ioos.station.NOAA.NDBC:PKYF1:1,2016-06-05T13:00:00Z,24.9180,-80.7470,1.0,29.37,2 
ENP,ioos.station.NOAA.NDBC:PKYF1:1,2016-06-05T14:00:00Z,24.9180,-80.7470,1.0,29.52,2 
ENP,ioos.station.NOAA.NDBC:PKYF1:1,2016-06-05T15:00:00Z,24.9180,-80.7470,1.0,30.14,2 
ENP,ioos.station.NOAA.NDBC:PKYF1:1,2016-06-05T16:00:00Z,24.9180,-80.7470,1.0,30.35,2 
ENP,ioos.station.NOAA.NDBC:PKYF1:1,2016-06-05T17:00:00Z,24.9180,-80.7470,1.0,30.42,2 
ENP,ioos.station.NOAA.NDBC:PKYF1:1,2016-06-05T18:00:00Z,24.9180,-80.7470,1.0,30.33,2 
ENP,ioos.station.NOAA.NDBC:PKYF1:1,2016-06-05T19:00:00Z,24.9180,-80.7470,1.0,30.47,2 
ENP,ioos.station.NOAA.NDBC:PKYF1:1,2016-06-05T20:00:00Z,24.9180,-80.7470,1.0,30.61,2 
ENP,ioos.station.NOAA.NDBC:PKYF1:1,2016-06-05T21:00:00Z,24.9180,-80.7470,1.0,30.58,2 
ENP,ioos.station.NOAA.NDBC:PKYF1:1,2016-06-05T22:00:00Z,24.9180,-80.7470,1.0,30.41,2 
ENP,ioos.station.NOAA.NDBC:PKYF1:1,2016-06-05T23:00:00Z,24.9180,-80.7470,1.0,30.27,2 
ENP,ioos.station.NOAA.NDBC:PKYF1:1,2016-06-06T00:00:00Z,24.9180,-80.7470,1.0,30.12,2 
ENP,ioos.station.NOAA.NDBC:PKYF1:1,2016-06-06T01:00:00Z,24.9180,-80.7470,1.0,29.96,2 
ENP,ioos.station.NOAA.NDBC:PKYF1:1,2016-06-06T02:00:00Z,24.9180,-80.7470,1.0,29.58,2 
ENP,ioos.station.NOAA.NDBC:PKYF1:1,2016-06-06T04:00:00Z,24.9180,-80.7470,1.0,29.76,2 
ENP,ioos.station.NOAA.NDBC:PKYF1:1,2016-06-06T05:00:00Z,24.9180,-80.7470,1.0,29.87,2 
ENP,ioos.station.NOAA.NDBC:PKYF1:1,2016-06-06T07:00:00Z,24.9180,-80.7470,1.0,29.57,2 
ENP,ioos.station.NOAA.NDBC:PKYF1:1,2016-06-06T08:00:00Z,24.9180,-80.7470,1.0,29.37,2 
ENP,ioos.station.NOAA.NDBC:PKYF1:1,2016-06-06T09:00:00Z,24.9180,-80.7470,1.0,29.11,2 
ENP,ioos.station.NOAA.NDBC:PKYF1:1,2016-06-06T10:00:00Z,24.9180,-80.7470,1.0,29.02,2 
ENP,ioos.station.NOAA.NDBC:PKYF1:1,2016-06-06T11:00:00Z,24.9180,-80.7470,1.0,28.92,2 
ENP,ioos.station.NOAA.NDBC:PKYF1:1,2016-06-06T12:00:00Z,24.9180,-80.7470,1.0,28.85,2 
ENP,ioos.station.NOAA.NDBC:PKYF1:1,2016-06-06T13:00:00Z,24.9180,-80.7470,1.0,29.02,2 
ENP,ioos.station.NOAA.NDBC:PKYF1:1,2016-06-06T14:00:00Z,24.9180,-80.7470,1.0,29.14,2 
ENP,ioos.station.NOAA.NDBC:PKYF1:1,2016-06-06T15:00:00Z,24.9180,-80.7470,1.0,29.6,2 
ENP,ioos.station.NOAA.NDBC:PKYF1:1,2016-06-06T16:00:00Z,24.9180,-80.7470,1.0,29.75,2 
ENP,ioos.station.NOAA.NDBC:PKYF1:1,2016-06-06T17:00:00Z,24.9180,-80.7470,1.0,29.83,2 
ENP,ioos.station.NOAA.NDBC:PKYF1:1,2016-06-06T18:00:00Z,24.9180,-80.7470,1.0,29.99,2 
ENP,ioos.station.NOAA.NDBC:PKYF1:1,2016-06-06T19:00:00Z,24.9180,-80.7470,1.0,30.05,2 
ENP,ioos.station.NOAA.NDBC:PKYF1:1,2016-06-06T20:00:00Z,24.9180,-80.7470,1.0,30.1,2 
ENP,ioos.station.NOAA.NDBC:PKYF1:1,2016-06-06T22:00:00Z,24.9180,-80.7470,1.0,30.03,2 
ENP,ioos.station.NOAA.NDBC:PKYF1:1,2016-06-06T23:00:00Z,24.9180,-80.7470,1.0,29.99,2 
ENP,ioos.station.NOAA.NDBC:PKYF1:1,2016-06-07T00:00:00Z,24.9180,-80.7470,1.0,29.89,2 
ENP,ioos.station.NOAA.NDBC:PKYF1:1,2016-06-07T01:00:00Z,24.9180,-80.7470,1.0,29.56,2 
ENP,ioos.station.NOAA.NDBC:PKYF1:1,2016-06-07T04:00:00Z,24.9180,-80.7470,1.0,29.33,2 
ENP,ioos.station.NOAA.NDBC:PKYF1:1,2016-06-07T07:00:00Z,24.9180,-80.7470,1.0,29.13,2 
ENP,ioos.station.NOAA.NDBC:PKYF1:1,2016-06-07T08:00:00Z,24.9180,-80.7470,1.0,28.98,2 
ENP,ioos.station.NOAA.NDBC:PKYF1:1,2016-06-07T09:00:00Z,24.9180,-80.7470,1.0,28.91,2 
ENP,ioos.station.NOAA.NDBC:PKYF1:1,2016-06-07T10:00:00Z,24.9180,-80.7470,1.0,28.84,2 
ENP,ioos.station.NOAA.NDBC:PKYF1:1,2016-06-07T11:00:00Z,24.9180,-80.7470,1.0,28.74,2 
ENP,ioos.station.NOAA.NDBC:PKYF1:1,2016-06-07T12:00:00Z,24.9180,-80.7470,1.0,28.31,2 
ENP,ioos.station.NOAA.NDBC:PKYF1:1,2016-06-07T13:00:00Z,24.9180,-80.7470,1.0,28.57,2 
ENP,ioos.station.NOAA.NDBC:PKYF1:1,2016-06-07T14:00:00Z,24.9180,-80.7470,1.0,28.73,2 
ENP,ioos.station.NOAA.NDBC:PKYF1:1,2016-06-07T15:00:00Z,24.9180,-80.7470,1.0,29.02,2 
ENP,ioos.station.NOAA.NDBC:PKYF1:1,2016-06-07T16:00:00Z,24.9180,-80.7470,1.0,29.16,2 
ENP,ioos.station.NOAA.NDBC:PKYF1:1,2016-06-07T17:00:00Z,24.9180,-80.7470,1.0,29.31,2 
ENP,ioos.station.NOAA.NDBC:PKYF1:1,2016-06-07T18:00:00Z,24.9180,-80.7470,1.0,29.44,2 
ENP,ioos.station.NOAA.NDBC:PKYF1:1,2016-06-07T19:00:00Z,24.9180,-80.7470,1.0,29.64,2 
ENP,ioos.station.NOAA.NDBC:PKYF1:1,2016-06-07T20:00:00Z,24.9180,-80.7470,1.0,29.76,2 
ENP,ioos.station.NOAA.NDBC:PKYF1:1,2016-06-07T21:00:00Z,24.9180,-80.7470,1.0,29.95,2 
ENP,ioos.station.NOAA.NDBC:PKYF1:1,2016-06-07T22:00:00Z,24.9180,-80.7470,1.0,29.73,2 
ENP,ioos.station.NOAA.NDBC:PKYF1:1,2016-06-07T23:00:00Z,24.9180,-80.7470,1.0,29.4,2 
ENP,ioos.station.NOAA.NDBC:PKYF1:1,2016-06-08T00:00:00Z,24.9180,-80.7470,1.0,29.23,2 
ENP,ioos.station.NOAA.NDBC:PKYF1:1,2016-06-08T01:00:00Z,24.9180,-80.7470,1.0,28.91,2 
ENP,ioos.station.NOAA.NDBC:PKYF1:1,2016-06-08T04:00:00Z,24.9180,-80.7470,1.0,28.27,2 
ENP,ioos.station.NOAA.NDBC:PKYF1:1,2016-06-08T07:00:00Z,24.9180,-80.7470,1.0,28.03,2 
ENP,ioos.station.NOAA.NDBC:PKYF1:1,2016-06-08T08:00:00Z,24.9180,-80.7470,1.0,28.21,2 
ENP,ioos.station.NOAA.NDBC:PKYF1:1,2016-06-08T09:00:00Z,24.9180,-80.7470,1.0,28.32,2 
ENP,ioos.station.NOAA.NDBC:PKYF1:1,2016-06-08T10:00:00Z,24.9180,-80.7470,1.0,28.28,2 
ENP,ioos.station.NOAA.NDBC:PKYF1:1,2016-06-08T11:00:00Z,24.9180,-80.7470,1.0,28.2,2 
ENP,ioos.station.NOAA.NDBC:PKYF1:1,2016-06-08T12:00:00Z,24.9180,-80.7470,1.0,28.12,2 
ENP,ioos.station.NOAA.NDBC:PKYF1:1,2016-06-08T13:00:00Z,24.9180,-80.7470,1.0,28.05,2 
ENP,ioos.station.NOAA.NDBC:PKYF1:1,2016-06-08T14:00:00Z,24.9180,-80.7470,1.0,28.19,2 
ENP,ioos.station.NOAA.NDBC:PKYF1:1,2016-06-08T15:00:00Z,24.9180,-80.7470,1.0,28.19,2 
ENP,ioos.station.NOAA.NDBC:PKYF1:1,2016-06-08T16:00:00Z,24.9180,-80.7470,1.0,28.38,2 
ENP,ioos.station.NOAA.NDBC:PKYF1:1,2016-06-08T17:00:00Z,24.9180,-80.7470,1.0,28.5,2 
ENP,ioos.station.NOAA.NDBC:PKYF1:1,2016-06-08T18:00:00Z,24.9180,-80.7470,1.0,28.5,2 
ENP,ioos.station.NOAA.NDBC:PKYF1:1,2016-06-08T19:00:00Z,24.9180,-80.7470,1.0,28.53,2 
ENP,ioos.station.NOAA.NDBC:PKYF1:1,2016-06-08T20:00:00Z,24.9180,-80.7470,1.0,28.58,2 
ENP,ioos.station.NOAA.NDBC:PKYF1:1,2016-06-08T21:00:00Z,24.9180,-80.7470,1.0,28.72,2 
ENP,ioos.station.NOAA.NDBC:PKYF1:1,2016-06-08T22:00:00Z,24.9180,-80.7470,1.0,28.71,2 
ENP,ioos.station.NOAA.NDBC:PKYF1:1,2016-06-08T23:00:00Z,24.9180,-80.7470,1.0,28.45,2 
ENP,ioos.station.NOAA.NDBC:PKYF1:1,2016-06-09T00:00:00Z,24.9180,-80.7470,1.0,28.2,2 
ENP,ioos.station.NOAA.NDBC:PKYF1:1,2016-06-09T01:00:00Z,24.9180,-80.7470,1.0,28.13,2 
ENP,ioos.station.NOAA.NDBC:PKYF1:1,2016-06-09T04:00:00Z,24.9180,-80.7470,1.0,28.17,2 
ENP,ioos.station.NOAA.NDBC:PKYF1:1,2016-06-09T07:00:00Z,24.9180,-80.7470,1.0,28.02,2 
ENP,ioos.station.NOAA.NDBC:PKYF1:1,2016-06-09T08:00:00Z,24.9180,-80.7470,1.0,28.04,2 
ENP,ioos.station.NOAA.NDBC:PKYF1:1,2016-06-09T09:00:00Z,24.9180,-80.7470,1.0,28.08,2 
ENP,ioos.station.NOAA.NDBC:PKYF1:1,2016-06-09T10:00:00Z,24.9180,-80.7470,1.0,27.95,2 
ENP,ioos.station.NOAA.NDBC:PKYF1:1,2016-06-09T11:00:00Z,24.9180,-80.7470,1.0,27.93,2 
ENP,ioos.station.NOAA.NDBC:PKYF1:1,2016-06-09T12:00:00Z,24.9180,-80.7470,1.0,27.93,2 
ENP,ioos.station.NOAA.NDBC:PKYF1:1,2016-06-09T13:00:00Z,24.9180,-80.7470,1.0,28.02,2 
ENP,ioos.station.NOAA.NDBC:PKYF1:1,2016-06-09T14:00:00Z,24.9180,-80.7470,1.0,28.25,2 
ENP,ioos.station.NOAA.NDBC:PKYF1:1,2016-06-09T15:00:00Z,24.9180,-80.7470,1.0,28.66,2 
ENP,ioos.station.NOAA.NDBC:PKYF1:1,2016-06-09T16:00:00Z,24.9180,-80.7470,1.0,28.58,2 
ENP,ioos.station.NOAA.NDBC:PKYF1:1,2016-06-09T17:00:00Z,24.9180,-80.7470,1.0,28.49,2 
ENP,ioos.station.NOAA.NDBC:PKYF1:1,2016-06-09T18:00:00Z,24.9180,-80.7470,1.0,28.56,2 
ENP,ioos.station.NOAA.NDBC:PKYF1:1,2016-06-09T19:00:00Z,24.9180,-80.7470,1.0,28.69,2 
ENP,ioos.station.NOAA.NDBC:PKYF1:1,2016-06-09T20:00:00Z,24.9180,-80.7470,1.0,28.98,2 
ENP,ioos.station.NOAA.NDBC:PKYF1:1,2016-06-09T21:00:00Z,24.9180,-80.7470,1.0,29.26,2 
ENP,ioos.station.NOAA.NDBC:PKYF1:1,2016-06-09T22:00:00Z,24.9180,-80.7470,1.0,29.27,2 
ENP,ioos.station.NOAA.NDBC:PKYF1:1,2016-06-09T23:00:00Z,24.9180,-80.7470,1.0,29.14,2 
ENP,ioos.station.NOAA.NDBC:PKYF1:1,2016-06-10T00:00:00Z,24.9180,-80.7470,1.0,29.09,2 
ENP,ioos.station.NOAA.NDBC:PKYF1:1,2016-06-10T01:00:00Z,24.9180,-80.7470,1.0,29.05,2 
ENP,ioos.station.NOAA.NDBC:PKYF1:1,2016-06-10T04:00:00Z,24.9180,-80.7470,1.0,29.05,2 
ENP,ioos.station.NOAA.NDBC:PKYF1:1,2016-06-10T07:00:00Z,24.9180,-80.7470,1.0,28.7,2 
ENP,ioos.station.NOAA.NDBC:PKYF1:1,2016-06-10T08:00:00Z,24.9180,-80.7470,1.0,28.67,2 
ENP,ioos.station.NOAA.NDBC:PKYF1:1,2016-06-10T09:00:00Z,24.9180,-80.7470,1.0,28.63,2 
ENP,ioos.station.NOAA.NDBC:PKYF1:1,2016-06-10T10:00:00Z,24.9180,-80.7470,1.0,28.53,2 
ENP,ioos.station.NOAA.NDBC:PKYF1:1,2016-06-10T11:00:00Z,24.9180,-80.7470,1.0,28.54,2 
ENP,ioos.station.NOAA.NDBC:PKYF1:1,2016-06-10T12:00:00Z,24.9180,-80.7470,1.0,28.57,2 
ENP,ioos.station.NOAA.NDBC:PKYF1:1,2016-06-10T13:00:00Z,24.9180,-80.7470,1.0,28.61,2 
ENP,ioos.station.NOAA.NDBC:PKYF1:1,2016-06-10T14:00:00Z,24.9180,-80.7470,1.0,28.73,2 
ENP,ioos.station.NOAA.NDBC:PKYF1:1,2016-06-10T15:00:00Z,24.9180,-80.7470,1.0,28.99,2 
ENP,ioos.station.NOAA.NDBC:PKYF1:1,2016-06-10T16:00:00Z,24.9180,-80.7470,1.0,30.12,2 
ENP,ioos.station.NOAA.NDBC:PKYF1:1,2016-06-10T17:00:00Z,24.9180,-80.7470,1.0,30.0,2 
ENP,ioos.station.NOAA.NDBC:PKYF1:1,2016-06-10T18:00:00Z,24.9180,-80.7470,1.0,30.24,2 
ENP,ioos.station.NOAA.NDBC:PKYF1:1,2016-06-10T19:00:00Z,24.9180,-80.7470,1.0,30.51,2 
ENP,ioos.station.NOAA.NDBC:PKYF1:1,2016-06-10T20:00:00Z,24.9180,-80.7470,1.0,30.56,2 
ENP,ioos.station.NOAA.NDBC:PKYF1:1,2016-06-10T21:00:00Z,24.9180,-80.7470,1.0,30.62,2 
ENP,ioos.station.NOAA.NDBC:PKYF1:1,2016-06-10T22:00:00Z,24.9180,-80.7470,1.0,30.77,2 
ENP,ioos.station.NOAA.NDBC:PKYF1:1,2016-06-10T23:00:00Z,24.9180,-80.7470,1.0,30.69,2 
ENP,ioos.station.NOAA.NDBC:PKYF1:1,2016-06-11T00:00:00Z,24.9180,-80.7470,1.0,30.55,2 
ENP,ioos.station.NOAA.NDBC:PKYF1:1,2016-06-11T01:00:00Z,24.9180,-80.7470,1.0,30.39,2 
ENP,ioos.station.NOAA.NDBC:PKYF1:1,2016-06-11T04:00:00Z,24.9180,-80.7470,1.0,29.67,2 
ENP,ioos.station.NOAA.NDBC:PKYF1:1,2016-06-11T07:00:00Z,24.9180,-80.7470,1.0,29.2,2 
ENP,ioos.station.NOAA.NDBC:PKYF1:1,2016-06-11T08:00:00Z,24.9180,-80.7470,1.0,29.27,2 
ENP,ioos.station.NOAA.NDBC:PKYF1:1,2016-06-11T09:00:00Z,24.9180,-80.7470,1.0,29.23,2 
ENP,ioos.station.NOAA.NDBC:PKYF1:1,2016-06-11T10:00:00Z,24.9180,-80.7470,1.0,29.07,2 
ENP,ioos.station.NOAA.NDBC:PKYF1:1,2016-06-11T11:00:00Z,24.9180,-80.7470,1.0,28.99,2 
ENP,ioos.station.NOAA.NDBC:PKYF1:1,2016-06-11T12:00:00Z,24.9180,-80.7470,1.0,29.05,2 
ENP,ioos.station.NOAA.NDBC:PKYF1:1,2016-06-11T13:00:00Z,24.9180,-80.7470,1.0,29.16,2 
ENP,ioos.station.NOAA.NDBC:PKYF1:1,2016-06-11T14:00:00Z,24.9180,-80.7470,1.0,29.37,2 
ENP,ioos.station.NOAA.NDBC:PKYF1:1,2016-06-11T15:00:00Z,24.9180,-80.7470,1.0,29.67,2 
ENP,ioos.station.NOAA.NDBC:PKYF1:1,2016-06-11T16:00:00Z,24.9180,-80.7470,1.0,30.07,2 
ENP,ioos.station.NOAA.NDBC:PKYF1:1,2016-06-11T17:00:00Z,24.9180,-80.7470,1.0,31.51,2 
ENP,ioos.station.NOAA.NDBC:PKYF1:1,2016-06-11T18:00:00Z,24.9180,-80.7470,1.0,31.68,2 
ENP,ioos.station.NOAA.NDBC:PKYF1:1,2016-06-11T19:00:00Z,24.9180,-80.7470,1.0,31.18,2 
ENP,ioos.station.NOAA.NDBC:PKYF1:1,2016-06-11T20:00:00Z,24.9180,-80.7470,1.0,31.36,2 
ENP,ioos.station.NOAA.NDBC:PKYF1:1,2016-06-11T21:00:00Z,24.9180,-80.7470,1.0,31.6,2 
ENP,ioos.station.NOAA.NDBC:PKYF1:1,2016-06-11T22:00:00Z,24.9180,-80.7470,1.0,32.04,2 
ENP,ioos.station.NOAA.NDBC:PKYF1:1,2016-06-11T23:00:00Z,24.9180,-80.7470,1.0,32.25,2 
ENP,ioos.station.NOAA.NDBC:PKYF1:1,2016-06-12T00:00:00Z,24.9180,-80.7470,1.0,31.86,2 
ENP,ioos.station.NOAA.NDBC:PKYF1:1,2016-06-12T01:00:00Z,24.9180,-80.7470,1.0,31.53,2 
ENP,ioos.station.NOAA.NDBC:PKYF1:1,2016-06-12T04:00:00Z,24.9180,-80.7470,1.0,30.89,2 
ENP,ioos.station.NOAA.NDBC:PKYF1:1,2016-06-12T07:00:00Z,24.9180,-80.7470,1.0,30.38,2 
ENP,ioos.station.NOAA.NDBC:PKYF1:1,2016-06-12T08:00:00Z,24.9180,-80.7470,1.0,30.19,2 
ENP,ioos.station.NOAA.NDBC:PKYF1:1,2016-06-12T09:00:00Z,24.9180,-80.7470,1.0,30.21,2 
ENP,ioos.station.NOAA.NDBC:PKYF1:1,2016-06-12T10:00:00Z,24.9180,-80.7470,1.0,30.18,2 
ENP,ioos.station.NOAA.NDBC:PKYF1:1,2016-06-12T12:00:00Z,24.9180,-80.7470,1.0,29.95,2 
ENP,ioos.station.NOAA.NDBC:PKYF1:1,2016-06-12T13:00:00Z,24.9180,-80.7470,1.0,30.17,2 
ENP,ioos.station.NOAA.NDBC:PKYF1:1,2016-06-12T14:00:00Z,24.9180,-80.7470,1.0,30.35,2 
ENP,ioos.station.NOAA.NDBC:PKYF1:1,2016-06-12T15:00:00Z,24.9180,-80.7470,1.0,30.56,2 
ENP,ioos.station.NOAA.NDBC:PKYF1:1,2016-06-12T16:00:00Z,24.9180,-80.7470,1.0,30.86,2 
ENP,ioos.station.NOAA.NDBC:PKYF1:1,2016-06-12T17:00:00Z,24.9180,-80.7470,1.0,31.35,2 
ENP,ioos.station.NOAA.NDBC:PKYF1:1,2016-06-12T18:00:00Z,24.9180,-80.7470,1.0,32.79,2 
ENP,ioos.station.NOAA.NDBC:PKYF1:1,2016-06-12T19:00:00Z,24.9180,-80.7470,1.0,32.7,2 
ENP,ioos.station.NOAA.NDBC:PKYF1:1,2016-06-12T20:00:00Z,24.9180,-80.7470,1.0,32.53,2 
ENP,ioos.station.NOAA.NDBC:PKYF1:1,2016-06-12T21:00:00Z,24.9180,-80.7470,1.0,32.51,2 
ENP,ioos.station.NOAA.NDBC:PKYF1:1,2016-06-12T22:00:00Z,24.9180,-80.7470,1.0,32.4,2 
ENP,ioos.station.NOAA.NDBC:PKYF1:1,2016-06-12T23:00:00Z,24.9180,-80.7470,1.0,32.3,2 
ENP,ioos.station.NOAA.NDBC:PKYF1:1,2016-06-13T00:00:00Z,24.9180,-80.7470,1.0,32.01,2 
ENP,ioos.station.NOAA.NDBC:PKYF1:1,2016-06-13T01:00:00Z,24.9180,-80.7470,1.0,32.0,2 
ENP,ioos.station.NOAA.NDBC:PKYF1:1,2016-06-13T02:00:00Z,24.9180,-80.7470,1.0,32.05,2 
ENP,ioos.station.NOAA.NDBC:PKYF1:1,2016-06-13T04:00:00Z,24.9180,-80.7470,1.0,32.01,2 
ENP,ioos.station.NOAA.NDBC:PKYF1:1,2016-06-13T05:00:00Z,24.9180,-80.7470,1.0,31.8,2 
ENP,ioos.station.NOAA.NDBC:PKYF1:1,2016-06-13T07:00:00Z,24.9180,-80.7470,1.0,31.26,2 
ENP,ioos.station.NOAA.NDBC:PKYF1:1,2016-06-13T08:00:00Z,24.9180,-80.7470,1.0,31.27,2 
ENP,ioos.station.NOAA.NDBC:PKYF1:1,2016-06-13T09:00:00Z,24.9180,-80.7470,1.0,31.28,2 
ENP,ioos.station.NOAA.NDBC:PKYF1:1,2016-06-13T11:00:00Z,24.9180,-80.7470,1.0,31.16,2 
ENP,ioos.station.NOAA.NDBC:PKYF1:1,2016-06-13T12:00:00Z,24.9180,-80.7470,1.0,31.0,2 
ENP,ioos.station.NOAA.NDBC:PKYF1:1,2016-06-13T13:00:00Z,24.9180,-80.7470,1.0,31.08,2 
ENP,ioos.station.NOAA.NDBC:PKYF1:1,2016-06-13T14:00:00Z,24.9180,-80.7470,1.0,31.16,2 
ENP,ioos.station.NOAA.NDBC:PKYF1:1,2016-06-13T15:00:00Z,24.9180,-80.7470,1.0,31.33,2 
ENP,ioos.station.NOAA.NDBC:PKYF1:1,2016-06-13T16:00:00Z,24.9180,-80.7470,1.0,31.71,2 
ENP,ioos.station.NOAA.NDBC:PKYF1:1,2016-06-13T17:00:00Z,24.9180,-80.7470,1.0,32.1,2 
ENP,ioos.station.NOAA.NDBC:PKYF1:1,2016-06-13T18:00:00Z,24.9180,-80.7470,1.0,32.51,2 
ENP,ioos.station.NOAA.NDBC:PKYF1:1,2016-06-13T19:00:00Z,24.9180,-80.7470,1.0,33.13,2 
ENP,ioos.station.NOAA.NDBC:PKYF1:1,2016-06-13T20:00:00Z,24.9180,-80.7470,1.0,34.06,2 
ENP,ioos.station.NOAA.NDBC:PKYF1:1,2016-06-13T21:00:00Z,24.9180,-80.7470,1.0,33.01,2 
ENP,ioos.station.NOAA.NDBC:PKYF1:1,2016-06-13T22:00:00Z,24.9180,-80.7470,1.0,32.49,2 
ENP,ioos.station.NOAA.NDBC:PKYF1:1,2016-06-13T23:00:00Z,24.9180,-80.7470,1.0,32.44,2 
ENP,ioos.station.NOAA.NDBC:PKYF1:1,2016-06-14T00:00:00Z,24.9180,-80.7470,1.0,32.54,2 
ENP,ioos.station.NOAA.NDBC:PKYF1:1,2016-06-14T01:00:00Z,24.9180,-80.7470,1.0,32.58,2 
ENP,ioos.station.NOAA.NDBC:PKYF1:1,2016-06-14T04:00:00Z,24.9180,-80.7470,1.0,31.92,2 
ENP,ioos.station.NOAA.NDBC:PKYF1:1,2016-06-14T07:00:00Z,24.9180,-80.7470,1.0,31.15,2 
ENP,ioos.station.NOAA.NDBC:PKYF1:1,2016-06-14T08:00:00Z,24.9180,-80.7470,1.0,31.37,2 
ENP,ioos.station.NOAA.NDBC:PKYF1:1,2016-06-14T09:00:00Z,24.9180,-80.7470,1.0,31.42,2 
ENP,ioos.station.NOAA.NDBC:PKYF1:1,2016-06-14T11:00:00Z,24.9180,-80.7470,1.0,31.33,2 
ENP,ioos.station.NOAA.NDBC:PKYF1:1,2016-06-14T12:00:00Z,24.9180,-80.7470,1.0,31.26,2 
ENP,ioos.station.NOAA.NDBC:PKYF1:1,2016-06-14T13:00:00Z,24.9180,-80.7470,1.0,31.28,2 
ENP,ioos.station.NOAA.NDBC:PKYF1:1,2016-06-14T14:00:00Z,24.9180,-80.7470,1.0,31.38,2 
ENP,ioos.station.NOAA.NDBC:PKYF1:1,2016-06-14T15:00:00Z,24.9180,-80.7470,1.0,31.65,2 
ENP,ioos.station.NOAA.NDBC:PKYF1:1,2016-06-14T17:00:00Z,24.9180,-80.7470,1.0,32.3,2 
ENP,ioos.station.NOAA.NDBC:PKYF1:1,2016-06-14T18:00:00Z,24.9180,-80.7470,1.0,32.51,2 
ENP,ioos.station.NOAA.NDBC:PKYF1:1,2016-06-14T19:00:00Z,24.9180,-80.7470,1.0,32.85,2 
ENP,ioos.station.NOAA.NDBC:PKYF1:1,2016-06-14T20:00:00Z,24.9180,-80.7470,1.0,34.11,2 
ENP,ioos.station.NOAA.NDBC:PKYF1:1,2016-06-14T21:00:00Z,24.9180,-80.7470,1.0,34.36,2 
ENP,ioos.station.NOAA.NDBC:PKYF1:1,2016-06-14T22:00:00Z,24.9180,-80.7470,1.0,34.1,2 
ENP,ioos.station.NOAA.NDBC:PKYF1:1,2016-06-14T23:00:00Z,24.9180,-80.7470,1.0,33.77,2 